Location: Newark
(49.8900°N, 17.8822°E)
Time: 16:04:14
(UTC+00:00)

Envisat - Pass Details

Date: 03 September 2019
Orbit: 764 x 766 km, 98.1° (Epoch: 22 September)

Event Time Altitude Azimuth Distance (km) Brightness Sun altitude
Rises 18:15:26 0° 210° (SSW) 3,222 6.3 -8.0°
Reaches altitude 10° 18:18:28 10° 229° (SW) 2,301 5.9 -8.4°
Maximum altitude 18:21:52 18° 271° (W) 1,820 6.0 -9.0°
Drops below altitude 10° 18:25:18 10° 314° (NW) 2,313 6.8 -9.5°
Sets 18:28:22 0° 333° (NNW) 3,244 7.1 -9.9°
